Location: Unspecified
(0.0000°N, 0.0000°E)
Time: 13:05:10
(UTC+00:00)

Explorer 11/Cluster Stage 4 - Visible Passes

Search period start: 01 August 2021 00:00
Search period end: 11 August 2021 00:00
Orbit: 467 x 1257 km, 28.8° (Epoch: 01 August)

Date Brightness Start Highest point End Pass type
(mag) Time Alt. Az. Time Alt. Az. Time Alt. Az.
01 Aug 7.3 04:24:09 41° SSW 04:25:55 55° SSE 04:32:51 10° ENE visible
02 Aug 6.8 04:13:58 59° S 04:14:44 65° SSE 04:21:36 10° ENE visible
03 Aug 6.7 04:03:47 77° ESE 04:03:47 77° ESE 04:10:17 10° ENE visible
04 Aug 7.1 03:53:36 60° NE 03:53:36 60° NE 03:58:56 10° ENE visible
04 Aug 8.5 05:36:52 10° WNW 05:41:44 25° NNW 05:47:24 10° NNE visible
05 Aug 7.7 03:43:23 41° NE 03:43:23 41° NE 03:47:32 10° NE visible
05 Aug 8.6 05:26:27 10° WNW 05:30:43 20° NNW 05:35:36 10° NNE visible
06 Aug 8.3 03:33:08 28° NE 03:33:08 28° NE 03:36:08 10° NE visible
06 Aug 8.7 05:16:14 10° WNW 05:19:45 16° NNW 05:23:40 10° NNE visible
07 Aug 8.8 03:22:53 19° NE 03:22:53 19° NE 03:24:40 10° NE visible
07 Aug 8.8 05:06:21 10° NW 05:08:48 13° NNW 05:11:28 10° N visible
08 Aug 9.2 03:12:36 12° NE 03:12:36 12° NE 03:13:09 10° NE visible
